SB KEPS @ AMSAT $ORB13227.O Orbital Elements 13227.OSCAR
HR AMSAT ORBITAL ELEMENTS FOR OSCAR SATELLITES FROM WA5QGD FORT WORTH,TX August 15, 2013 BID: ORB13227.O TO ALL RADIO AMATEURS BT
Satellite: AO-07 Catalog number: 07530 Epoch time: 13226.77169591 Element set: 752 Inclination: 101.4363 deg RA of node: 214.1612 deg Eccentricity: 0.0011984 Arg of perigee: 171.2684 deg Mean anomaly: 279.4798 deg Mean motion: 12.53597602 rev/day Decay rate: -2.3e-07 rev/day^2 Epoch rev: 77312 Checksum: 305
Satellite: FO-29 Catalog number: 24278 Epoch time: 13227.22621633 Element set: 179 Inclination: 098.5501 deg RA of node: 277.8774 deg Eccentricity: 0.0350515 Arg of perigee: 011.3484 deg Mean anomaly: 060.9834 deg Mean motion: 13.53003813 rev/day Decay rate: 2.8e-07 rev/day^2 Epoch rev: 83929 Checksum: 310
Satellite: SO-33 Catalog number: 25509 Epoch time: 13227.09040875 Element set: 561 Inclination: 031.4331 deg RA of node: 094.1060 deg Eccentricity: 0.0351138 Arg of perigee: 313.5802 deg Mean anomaly: 210.4577 deg Mean motion: 14.29106973 rev/day Decay rate: 1.78e-06 rev/day^2 Epoch rev: 77332 Checksum: 281
Satellite: RS-22 Catalog number: 27939 Epoch time: 13227.41857483 Element set: 677 Inclination: 097.8001 deg RA of node: 052.1783 deg Eccentricity: 0.0013541 Arg of perigee: 004.3889 deg Mean anomaly: 355.7457 deg Mean motion: 14.64535508 rev/day Decay rate: 4.85e-06 rev/day^2 Epoch rev: 52796 Checksum: 339
Satellite: VO-52 Catalog number: 28650 Epoch time: 13227.11804828 Element set: 499 Inclination: 097.5676 deg RA of node: 242.6985 deg Eccentricity: 0.0027434 Arg of perigee: 087.9871 deg Mean anomaly: 312.9127 deg Mean motion: 14.84044522 rev/day Decay rate: 1.036e-05 rev/day^2 Epoch rev: 44782 Checksum: 336
Satellite: HO-68 Catalog number: 36122 Epoch time: 13227.25929620 Element set: 816 Inclination: 100.3013 deg RA of node: 282.8059 deg Eccentricity: 0.0007356 Arg of perigee: 216.4569 deg Mean anomaly: 143.6057 deg Mean motion: 13.16306237 rev/day Decay rate: -4.4e-07 rev/day^2 Epoch rev: 17618 Checksum: 290
/EX SB KEPS @ AMSAT $ORB13227.D Orbital Elements 13227.MICROS
HR AMSAT ORBITAL ELEMENTS FOR THE MICROSATS FROM WA5QGD FORT WORTH,TX August 15, 2013 BID: ORB13227.D TO ALL RADIO AMATEURS BT
Satellite: UO-11 Catalog number: 14781 Epoch time: 13227.16003596 Element set: 257 Inclination: 097.8978 deg RA of node: 287.6141 deg Eccentricity: 0.0010359 Arg of perigee: 098.7707 deg Mean anomaly: 261.4679 deg Mean motion: 14.80974163 rev/day Decay rate: 4.19e-06 rev/day^2 Epoch rev: 58266 Checksum: 344
Satellite: AO-16 Catalog number: 20439 Epoch time: 13227.47617510 Element set: 817 Inclination: 098.4734 deg RA of node: 166.1350 deg Eccentricity: 0.0010419 Arg of perigee: 349.8004 deg Mean anomaly: 118.4876 deg Mean motion: 14.32196181 rev/day Decay rate: 8.7e-07 rev/day^2 Epoch rev: 23072 Checksum: 298
Satellite: LO-19 Catalog number: 20442 Epoch time: 13226.86267838 Element set: 752 Inclination: 098.4429 deg RA of node: 167.1346 deg Eccentricity: 0.0011197 Arg of perigee: 340.8889 deg Mean anomaly: 052.4364 deg Mean motion: 14.32405752 rev/day Decay rate: 6.3e-07 rev/day^2 Epoch rev: 23083 Checksum: 314
Satellite: AO-27 Catalog number: 22825 Epoch time: 13226.92353206 Element set: 455 Inclination: 098.6214 deg RA of node: 170.3375 deg Eccentricity: 0.0009581 Arg of perigee: 114.4527 deg Mean anomaly: 288.3461 deg Mean motion: 14.29581706 rev/day Decay rate: 5.1e-07 rev/day^2 Epoch rev: 3702 Checksum: 293
Satellite: IO-26 Catalog number: 22826 Epoch time: 13227.42176303 Element set: 211 Inclination: 098.6157 deg RA of node: 171.1055 deg Eccentricity: 0.0010167 Arg of perigee: 107.1597 deg Mean anomaly: 040.6336 deg Mean motion: 14.29867962 rev/day Decay rate: 5.4e-07 rev/day^2 Epoch rev: 3722 Checksum: 284
Satellite: GO-32 Catalog number: 25397 Epoch time: 13227.46705163 Element set: 137 Inclination: 098.4212 deg RA of node: 192.6646 deg Eccentricity: 0.0002437 Arg of perigee: 113.3021 deg Mean anomaly: 033.4207 deg Mean motion: 14.23353737 rev/day Decay rate: 2.3e-07 rev/day^2 Epoch rev: 78437 Checksum: 278
Satellite: NO-44 Catalog number: 26931 Epoch time: 13227.16271422 Element set: 395 Inclination: 067.0516 deg RA of node: 107.4775 deg Eccentricity: 0.0007792 Arg of perigee: 272.0103 deg Mean anomaly: 259.4499 deg Mean motion: 14.29948390 rev/day Decay rate: 8.8e-07 rev/day^2 Epoch rev: 61985 Checksum: 329
Satellite: SO-50 Catalog number: 27607 Epoch time: 13226.78670997 Element set: 141 Inclination: 064.5564 deg RA of node: 085.7316 deg Eccentricity: 0.0038510 Arg of perigee: 143.3148 deg Mean anomaly: 339.0483 deg Mean motion: 14.73026371 rev/day Decay rate: 4.96e-06 rev/day^2 Epoch rev: 57234 Checksum: 315
Satellite: CO-55 Catalog number: 27844 Epoch time: 13227.05194123 Element set: 717 Inclination: 098.7020 deg RA of node: 235.2706 deg Eccentricity: 0.0010872 Arg of perigee: 082.9134 deg Mean anomaly: 310.5968 deg Mean motion: 14.21253570 rev/day Decay rate: 1.73e-06 rev/day^2 Epoch rev: 52509 Checksum: 290
Satellite: CO-57 Catalog number: 27848 Epoch time: 13226.44460948 Element set: 661 Inclination: 098.7107 deg RA of node: 234.2151 deg Eccentricity: 0.0010860 Arg of perigee: 089.1395 deg Mean anomaly: 018.6245 deg Mean motion: 14.20974700 rev/day Decay rate: 1.65e-06 rev/day^2 Epoch rev: 52493 Checksum: 312
Satellite: AO-51 Catalog number: 28375 Epoch time: 13227.42114343 Element set: 629 Inclination: 098.2066 deg RA of node: 180.5211 deg Eccentricity: 0.0083326 Arg of perigee: 195.9986 deg Mean anomaly: 311.1100 deg Mean motion: 14.41147747 rev/day Decay rate: 7.0e-07 rev/day^2 Epoch rev: 47986 Checksum: 302
Satellite: CP3 Catalog number: 31129 Epoch time: 13226.96290153 Element set: 528 Inclination: 097.9021 deg RA of node: 216.2985 deg Eccentricity: 0.0098815 Arg of perigee: 243.9969 deg Mean anomaly: 149.2791 deg Mean motion: 14.53764064 rev/day Decay rate: 4.15e-06 rev/day^2 Epoch rev: 33553 Checksum: 328
Satellite: CO-65 Catalog number: 32785 Epoch time: 13227.16761135 Element set: 711 Inclination: 097.7463 deg RA of node: 283.0086 deg Eccentricity: 0.0015854 Arg of perigee: 113.5752 deg Mean anomaly: 280.3554 deg Mean motion: 14.84033951 rev/day Decay rate: 9.01e-06 rev/day^2 Epoch rev: 28662 Checksum: 309
Satellite: PRISM Catalog number: 33493 Epoch time: 13227.39563217 Element set: 82 Inclination: 098.2241 deg RA of node: 026.3144 deg Eccentricity: 0.0018079 Arg of perigee: 004.9713 deg Mean anomaly: 355.1701 deg Mean motion: 14.86303919 rev/day Decay rate: 1.477e-05 rev/day^2 Epoch rev: 24671 Checksum: 291
Satellite: SOHLA-1 Catalog number: 33496 Epoch time: 13226.87896119 Element set: 121 Inclination: 098.1408 deg RA of node: 342.7627 deg Eccentricity: 0.0007808 Arg of perigee: 131.0623 deg Mean anomaly: 021.7512 deg Mean motion: 14.70343819 rev/day Decay rate: 2.62e-06 rev/day^2 Epoch rev: 24449 Checksum: 294
Satellite: SO-67 Catalog number: 35870 Epoch time: 13227.39334203 Element set: 333 Inclination: 097.1884 deg RA of node: 254.0387 deg Eccentricity: 0.0003708 Arg of perigee: 101.6054 deg Mean anomaly: 355.1442 deg Mean motion: 15.27691230 rev/day Decay rate: 3.444e-05 rev/day^2 Epoch rev: 21729 Checksum: 293
Satellite: TISAT-1 Catalog number: 36799 Epoch time: 13227.47530688 Element set: 353 Inclination: 098.0328 deg RA of node: 312.5213 deg Eccentricity: 0.0013263 Arg of perigee: 231.8390 deg Mean anomaly: 128.1641 deg Mean motion: 14.83534299 rev/day Decay rate: 1.106e-05 rev/day^2 Epoch rev: 16736 Checksum: 301
Satellite: STUDSAT Catalog number: 36801 Epoch time: 13225.79853138 Element set: 666 Inclination: 098.0437 deg RA of node: 314.5292 deg Eccentricity: 0.0011127 Arg of perigee: 212.7646 deg Mean anomaly: 293.7794 deg Mean motion: 14.89030965 rev/day Decay rate: 4.546e-05 rev/day^2 Epoch rev: 16728 Checksum: 327
Satellite: ALMASAT-1 Catalog number: 38078 Epoch time: 13227.03893236 Element set: 525 Inclination: 069.4688 deg RA of node: 064.1601 deg Eccentricity: 0.0682209 Arg of perigee: 071.4490 deg Mean anomaly: 295.9511 deg Mean motion: 14.27534716 rev/day Decay rate: 2.2326e-04 rev/day^2 Epoch rev: 7763 Checksum: 317
Satellite: XATCOBEO Catalog number: 38082 Epoch time: 13226.90858593 Element set: 408 Inclination: 069.4668 deg RA of node: 032.5320 deg Eccentricity: 0.0542254 Arg of perigee: 054.0348 deg Mean anomaly: 310.9833 deg Mean motion: 14.63555476 rev/day Decay rate: 5.1712e-04 rev/day^2 Epoch rev: 7849 Checksum: 318
Satellite: SOMP Catalog number: 39135 Epoch time: 13227.47200588 Element set: 248 Inclination: 064.8767 deg RA of node: 022.3633 deg Eccentricity: 0.0006775 Arg of perigee: 201.7515 deg Mean anomaly: 195.5419 deg Mean motion: 15.00628815 rev/day Decay rate: 2.305e-05 rev/day^2 Epoch rev: 1772 Checksum: 292
Satellite: CUBEBUG-1 Catalog number: 39153 Epoch time: 13227.36548132 Element set: 314 Inclination: 098.0704 deg RA of node: 303.1071 deg Eccentricity: 0.0016806 Arg of perigee: 253.0715 deg Mean anomaly: 106.8650 deg Mean motion: 14.76545261 rev/day Decay rate: 5.47e-06 rev/day^2 Epoch rev: 1641 Checksum: 269
Satellite: ESTCUBE-1 Catalog number: 39161 Epoch time: 13227.21841944 Element set: 279 Inclination: 098.1262 deg RA of node: 305.1602 deg Eccentricity: 0.0009049 Arg of perigee: 291.1551 deg Mean anomaly: 068.8708 deg Mean motion: 14.69057921 rev/day Decay rate: 4.76e-06 rev/day^2 Epoch rev: 1466 Checksum: 303
/EX SB KEPS @ AMSAT $ORB13227.W Orbital Elements 13227.WEATHER
HR AMSAT ORBITAL ELEMENTS FOR WEATHER SATELLITES FROM WA5QGD FORT WORTH,TX August 15, 2013 BID: ORB13227.W TO ALL RADIO AMATEURS BT
Satellite: NOAA-10 Catalog number: 16969 Epoch time: 13227.40841641 Element set: 462 Inclination: 098.5430 deg RA of node: 253.9490 deg Eccentricity: 0.0013288 Arg of perigee: 075.4125 deg Mean anomaly: 337.3195 deg Mean motion: 14.27657269 rev/day Decay rate: 6.6e-07 rev/day^2 Epoch rev: 40039 Checksum: 313
